Location: Franklinton
(36.1018°N, 78.4581°W)
Time: 14:25:01
(UTC-04:00)

N. Korean satellite - Visible Passes

Search period start: 15 October 2019 00:00
Search period end: 25 October 2019 00:00
Orbit: 455 x 508 km, 97.2° (Epoch: 14 October)

Date Brightness Start Highest point End Pass type
(mag) Time Alt. Az. Time Alt. Az. Time Alt. Az.
15 Oct 10.2 06:09:26 10° ENE 06:11:14 13° E 06:13:03 10° ESE visible
16 Oct 10.2 19:23:47 10° SW 19:25:34 14° W 19:27:21 10° WNW visible
17 Oct 7.7 06:50:42 10° NNE 06:54:12 50° E 06:57:45 10° S visible
17 Oct 8.9 18:57:07 10° SSW 19:00:09 29° W 19:03:12 10° NW visible
18 Oct 9.5 06:25:57 10° NE 06:28:51 23° E 06:31:47 10° SSE visible
19 Oct 10.5 06:02:34 10° ENE 06:03:25 11° E 06:04:17 10° ESE visible
20 Oct 9.9 19:15:23 10° SW 19:17:42 17° W 19:20:02 10° NW visible
21 Oct 8.3 06:42:58 10° NNE 06:46:24 39° E 06:49:51 10° S visible
22 Oct 9.8 06:18:25 10° NE 06:21:01 18° E 06:23:37 10° SE visible
24 Oct 7.0 07:00:14 10° NNE 07:03:54 72° ESE 07:07:34 10° S visible
24 Oct 9.5 19:07:05 10° SSW 19:09:47 22° W 19:12:31 10° NW visible
